STARLINK-36616, 67672

Orbit data source: Space-Track

STARLINK-36616, 67672 is a payload satellite owned by SpaceX/Seattle (US) in SSO that was launched on Mon, 02 Feb 2026 UTC via an FALCON 9 launch vehicle from the Air Force Western Test Range (AFWTR). Payload-class satellites include a variety of spacecraft equipped with specific instruments for various scientific and technological missions. These include communications satellites like Starlink; space stations such as the ISS; scientific satellites like the Hubble; Earth observation satellites from companies like Planet Labs, Umbra, and HawkEye 360; GPS; miniature CubeSats for education and research; and military/defense satellites.

Loading next visibility...
Identifier
67672, 2026-022AA
Orbit
SSO
Country
Flag of USUS
Related business
Manufacturer
SpaceX/Seattle
Mission
Operational spacecraft
Bus & Motor
STARLINK V2MO, Unknown motor
Mass
575 kg wet, ~530 kg dry
Launch date (UTC)
2026-02-02 (2 months ago)
Launch vehicle
FALCON 9
Launch site
Air Force Western Test Range (AFWTR)
Object type
Payload
Rocket body
Debris
Shape & HBR
Unknown shape, 17.7 m
Radar Cross Section
RCS unknown

Expand to show TLE details & history
Last TLE update: 6 hours ago

TLE from 6 hours ago
0 STARLINK-36616
1 67672U 26022AA  26095.55575452  .00015224  00000-0  47296-3 0  9995
2 67672  97.2834 129.5669 0001521  85.2758 274.8658 15.33443709  9698
Epoch: 2026-04-05T13:20Z
TLE epoch observation values (Epoch: 2026-04-05T13:20:17.190Z)
Latitude
-0.00007°
Longitude
95.63579°
Altitude
468.571 km
Speed
7.632 km/s
True Right ascension
08h 38m 16s
True Declination
0° 00' 00"
Sunlit
Object was in full shadow at epoch
Visualization orbit readout
Latitude
Unknown
Longitude
Unknown
Altitude
Unknown
Speed
Unknown
Apparent Right ascension
Unknown
Apparent Declination
Unknown
Sunlit
N/A
Visualization observer readout
Local Sidereal Time
01:35:16
Azimuth
Unknown
Elevation
Unknown
Doppler factor
Unknown
Orbital elements
Apogee altitude
463.53 km
Perigee altitude
461.449 km
Semi-major axis
6,840.627 km
Eccentricity
0.00015
Inclination
97.2834°
RAAN
129.5669°
Arg. of periapsis
85.2758°
True anomaly
274.84843°
Mean anomaly
274.8658°
Eccentric anomaly
274.85712°
Mean motion
3.83618 °/min
Orbital period
93.84 mins
BSTAR
0.00047296
Loading maneuver chart data...
Computing Atmospheric mass density...
Loading historical data...
Loading historical data...
Loading historical data...
Loading historical data...
Loading historical data...
Loading historical data...
Loading historical data...

Documentation

Showing up to 5 results
|